Simultaneous Nadir Overpasses (SNOs) Predictions

Prediction of SNOs between GOES-17 and TERRA Satellite Orbit:

Table of predicted SNOs for the next 14.0 days since TLE Epoch: 12/24/2022
Index Date Time (GOES-17) GOES-17 Lat,Lon TERRA Lat,Lon Distance(km) Time Diff (sec)
1 12/24/2022 07:31:20 0.01,-137.34 -0.58,-140.03 306.95 80
2 12/26/2022 07:18:15 0.01,-137.33 0.21,-136.23 124.50 80
3 12/26/2022 19:35:55 -0.01,-137.32 0.83,-141.17 437.56 80
4 12/28/2022 19:20:10 -0.00,-137.31 0.02,-137.36 6.17 80
5 12/30/2022 19:07:06 -0.00,-137.30 -0.80,-133.56 425.31 80
6 12/31/2022 07:24:53 0.00,-137.29 -0.28,-138.52 140.75 80
7 01/02/2023 07:11:48 0.00,-137.27 0.56,-134.72 290.03 80
8 01/02/2023 19:29:28 -0.01,-137.27 0.53,-139.66 272.33 80
9 01/04/2023 19:16:22 -0.00,-137.24 -0.27,-135.84 157.74 80
10 01/05/2023 07:34:11 0.01,-137.23 -0.74,-140.82 408.72 80
